Temp
8 7 5 4 4 3 2 2 2 2 2 3 3 3 2 2 2 2 2 2 3 3 3 4 5 5 6 6 6 7 8 8 9 11 12 14 15 14 14 14 14 15 16
8 7 5 4 3 3 2 2 2 2 3 3 3 3 2 2 2 2 2 2 2 2 2 3 3 4 4 4 5 6 7 7 8 8 9 9 13 14 14 14 15 15 16
6 6 4 4 3 3 2 2 2 2 2 2 2 2 2 1 1 1 1 1 1 2 2 2 2 3 3 3 3 4 5 6 6 7 7 8 9 9 14 14 14 14 14
3 5 3 4 4 3 3 2 2 2 2 2 2 3 3 2 1 1 0 0 0 1 1 1 1 2 2 2 2 3 3 4 5 6 6 7 7 6 8 13 13 13 13
1 2 3 4 4 3 2 1 1 1 1 2 2 3 2 2 1 0 0 -0 -0 0 0 0 0 1 1 1 1 2 2 3 3 4 4 6 7 8 7 6 9 11 12
-0 1 3 1 2 2 1 1 0 0 0 1 2 2 1 1 1 1 0 0 -0 -1 -0 -1 -0 -0 -0 0 0 1 1 2 2 3 3 4 4 5 5 5 6 6 9
-2 -1 1 -1 -1 0 -0 -0 -0 -1 -0 -0 1 1 1 1 1 1 1 0 -0 -1 -1 -1 -1 -1 -1 -1 -0 0 0 1 1 2 2 3 3 3 4 4 4 5 7
-1 -2 0 -1 -1 -1 -2 -2 -2 -1 -1 -0 -0 -0 -0 -0 -0 -0 -1 -0 -1 -1 -1 -1 -2 -1 -1 -1 -1 -1 -0 0 0 1 1 1 2 2 3 3 3 2 5
-1 -2 -0 -1 -1 -2 -2 -2 -1 -1 -1 -1 -1 -1 -1 -1 -1 -1 -1 -2 -2 -2 -2 -2 -2 -2 -2 -2 -1 -1 -1 -1 -0 0 0 1 1 1 1 2 2 2 2
-3 -1 -1 -1 -2 -2 -2 -2 -1 -1 -1 -1 -1 -1 -1 -1 -1 -1 -2 -2 -2 -2 -3 -3 -3 -2 -2 -2 -2 -2 -1 -1 -1 -0 -0 -0 0 0 1 1 1 2 2
-3 -2 -1 -2 -2 -3 -3 -3 -2 -2 -1 -1 -1 -1 -1 -1 -2 -2 -2 -2 -2 -2 -3 -3 -3 -3 -3 -3 -3 -2 -2 -2 -1 -1 -1 -1 -0 -0 -0 0 0 1 1
-3 -3 -2 -2 -2 -2 -2 -2 -2 -2 -1 -1 -2 -1 -1 -1 -2 -2 -2 -2 -2 -2 -3 -3 -3 -3 -3 -3 -3 -3 -3 -2 -2 -2 -1 -1 -1 -0 -0 -0 -0 0 0
-4 -4 -3 -3 -3 -3 -3 -2 -2 -2 -2 -2 -2 -2 -2 -2 -2 -2 -3 -3 -3 -3 -3 -3 -4 -3 -3 -3 -3 -3 -3 -3 -3 -2 -2 -2 -2 -1 -1 -1 -0 -0 -0
-4 -5 -5 -3 -3 -3 -3 -3 -3 -3 -2 -3 -3 -2 -2 -2 -2 -3 -3 -3 -3 -3 -3 -4 -4 -4 -4 -4 -4 -4 -3 -3 -3 -3 -3 -2 -2 -2 -2 -1 -1 -1 -0
-2 -3 -5 -2 -2 -2 -3 -3 -2 -2 -3 -2 -3 -3 -3 -3 -3 -3 -3 -3 -3 -3 -3 -4 -4 -4 -4 -4 -4 -4 -4 -4 -4 -3 -3 -2 -2 -2 -2 -2 -2 -2 -2
-1 -2 -2 -2 -2 -2 -2 -2 -2 -3 -3 -3 -3 -3 -3 -3 -4 -4 -4 -4 -4 -4 -4 -4 -4 -4 -4 -4 -5 -5 -5 -5 -4 -4 -3 -3 -3 -2 -2 -2 -2 -1 -2
-2 -3 -3 -3 -2 -2 -2 -2 -2 -2 -3 -3 -3 -3 -3 -3 -4 -4 -5 -5 -5 -4 -4 -4 -5 -5 -5 -5 -5 -5 -5 -5 -5 -4 -4 -3 -3 -2 -3 -3 -3 -2 -2
-4 -4 -4 -4 -3 -3 -2 -2 -2 -2 -3 -3 -3 -3 -4 -4 -4 -5 -5 -5 -5 -5 -4 -5 -5 -5 -5 -6 -6 -5 -6 -6 -5 -5 -4 -4 -4 -4 -3 -3 -3 -4 -4
-4 -4 -4 -4 -5 -5 -3 -2 -2 -3 -3 -3 -3 -3 -3 -4 -5 -5 -5 -5 -6 -5 -5 -5 -5 -5 -5 -6 -6 -6 -6 -6 -6 -5 -5 -4 -4 -4 -4 -3 -4 -5 -5
-5 -5 -6 -6 -6 -5 -4 -4 -4 -3 -4 -3 -3 -3 -3 -3 -4 -5 -5 -5 -6 -5 -5 -5 -6 -5 -5 -6 -6 -6 -6 -6 -6 -6 -6 -5 -5 -4 -4 -5 -5 -5 -6
-7 -7 -7 -7 -7 -6 -6 -6 -5 -5 -4 -4 -4 -4 -4 -4 -4 -4 -5 -6 -6 -7 -6 -6 -6 -6 -6 -6 -6 -6 -6 -6 -6 -6 -7 -7 -7 -6 -6 -6 -6 -6 -6
-9 -8 -8 -8 -8 -8 -7 -7 -7 -6 -5 -5 -5 -4 -4 -4 -4 -5 -5 -7 -8 -7 -7 -7 -7 -7 -6 -6 -7 -6 -6 -6 -6 -7 -7 -8 -8 -7 -7 -7 -7 -7 -7
-10 -10 -10 -10 -10 -9 -9 -8 -8 -7 -8 -7 -7 -6 -5 -5 -5 -5 -5 -8 -8 -8 -8 -8 -7 -7 -7 -6 -6 -6 -6 -6 -6 -7 -8 -8 -8 -9 -9 -9 -8 -9 -9
-12 -12 -11 -11 -11 -11 -10 -10 -9 -9 -9 -8 -8 -7 -7 -6 -6 -6 -6 -7 -9 -9 -8 -8 -8 -7 -6 -6 -7 -7 -7 -7 -7 -8 -8 -9 -9 -10 -10 -10 -11 -11 -11
-13 -13 -13 -13 -13 -12 -12 -12 -11 -11 -10 -10 -9 -8 -8 -7 -6 -6 -7 -7 -7 -8 -8 -8 -7 -6 -6 -6 -6 -7 -7 -8 -8 -9 -10 -10 -11 -11 -11 -11 -11 -11 -11
-14 -13 -13 -14 -13 -13 -13 -12 -12 -12 -12 -11 -10 -9 -8 -8 -7 -6 -6 -6 -7 -7 -7 -6 -6 -6 -6 -6 -6 -7 -8 -8 -9 -10 -10 -11 -11 -11 -11 -11 -11 -11 -11
Height
782 786 792 797 799 801 805 808 809 812 814 817 815 817 818 820 820 821 822 823 824 824 825 826 828 828 826 828 830 829 830 830 830 827 825 825 825 827 831 832 834 836 836
781 787 792 799 803 804 805 808 811 813 816 818 818 817 818 822 823 822 822 824 825 825 826 828 828 827 828 830 829 829 829 831 829 829 829 828 827 826 828 831 832 834 835
789 787 792 799 804 805 806 806 810 813 816 818 818 818 819 823 823 823 825 826 824 825 826 828 831 831 829 830 830 827 830 829 831 832 831 830 831 829 828 829 831 831 832
794 793 791 797 802 805 807 808 810 812 815 817 818 817 819 821 823 825 826 828 826 826 826 828 829 830 830 829 830 834 830 830 831 832 833 834 835 834 833 829 830 831 832
801 796 797 794 799 805 807 809 812 813 815 817 818 820 819 822 823 826 826 828 828 827 827 827 830 830 831 830 830 831 832 833 832 834 834 834 835 835 835 835 831 832 833
803 798 797 798 799 804 808 811 812 813 815 817 819 820 821 824 824 827 827 829 829 828 828 829 831 831 831 830 830 832 832 833 833 835 836 836 837 836 837 836 834 834 831
804 799 797 800 802 804 808 811 813 815 816 817 819 820 823 824 825 826 827 828 829 830 828 829 831 830 831 830 831 832 832 833 833 834 834 837 836 837 838 838 837 836 832
804 802 798 799 802 806 810 813 814 815 816 817 819 822 823 824 826 827 828 828 829 829 829 829 830 830 830 830 831 831 833 834 833 834 835 834 837 837 837 840 841 840 835
809 805 803 804 804 807 810 812 815 816 817 819 822 823 824 824 825 826 827 827 828 828 828 828 828 830 830 830 829 831 831 832 833 834 834 834 836 838 838 838 840 841 841
814 810 807 807 808 809 812 814 816 817 818 820 822 823 823 824 825 825 826 826 827 827 827 828 829 829 829 830 830 830 831 832 834 834 833 834 835 836 836 836 838 838 840
817 813 812 811 811 812 814 816 817 818 819 820 820 821 822 823 823 824 825 826 826 825 826 827 828 829 829 830 830 830 831 832 832 833 833 833 832 835 835 836 835 836 838
819 817 816 815 814 815 816 817 818 818 819 819 820 820 821 822 823 824 824 825 824 825 826 827 827 827 827 828 829 829 827 830 831 831 830 831 832 832 833 834 832 833 835
822 820 819 818 818 819 819 819 819 818 818 818 818 818 819 820 821 823 824 823 824 824 825 826 826 826 827 827 827 827 827 828 828 829 829 830 830 830 828 833 829 830 831
823 822 820 820 820 820 819 819 819 819 818 818 817 817 817 818 819 820 821 821 822 823 824 825 825 825 825 825 825 825 825 826 826 827 828 827 827 824 826 828 827 827 828
820 821 821 819 818 818 818 818 818 817 817 817 816 815 815 815 815 816 817 818 820 821 822 822 823 823 824 824 825 824 824 824 824 825 825 824 822 821 824 824 824 825 825
819 819 820 819 818 817 816 816 815 815 815 814 813 812 812 811 810 812 813 815 817 818 819 820 821 821 822 823 823 823 823 823 823 822 821 820 820 820 820 820 821 821 821
821 820 820 819 817 815 814 813 812 812 811 810 810 809 808 807 807 808 809 811 812 814 815 817 818 819 819 820 821 821 821 821 820 819 818 818 818 818 817 817 817 817 817
821 820 819 817 816 813 811 809 809 808 808 806 805 805 804 803 803 803 803 805 808 809 811 812 814 815 816 817 818 819 818 817 817 817 816 815 815 815 814 813 813 812 812
820 819 817 816 814 811 808 806 805 804 804 803 801 800 800 799 798 798 798 800 802 804 805 807 809 810 812 813 814 815 814 813 813 813 813 813 812 811 811 810 808 807 806
819 818 816 814 812 810 807 805 803 801 801 800 798 797 795 794 793 793 793 794 796 797 801 802 804 806 807 809 810 811 810 809 809 809 809 809 808 808 808 806 805 803 801
818 817 815 813 811 808 806 803 800 798 797 796 794 793 792 790 789 788 788 789 790 793 795 797 798 800 801 803 804 806 806 805 805 804 804 805 805 805 804 802 800 799 796
817 816 813 810 808 806 804 801 798 796 794 792 790 789 787 786 783 783 783 784 785 787 789 792 793 794 796 798 800 801 802 802 801 801 801 801 800 800 800 799 798 796 793
816 814 812 808 806 804 801 798 795 793 790 788 785 784 783 781 779 777 777 778 780 782 783 785 787 789 791 794 796 797 799 799 800 799 798 799 798 798 797 796 795 792 790
815 812 809 806 803 801 798 795 792 789 787 784 782 779 777 776 774 771 771 773 774 776 778 779 781 784 787 790 792 793 795 796 797 796 796 797 796 796 796 794 793 791 789
812 810 807 804 801 798 794 791 788 785 782 779 777 775 772 770 768 766 764 765 766 769 771 772 775 778 782 785 788 790 791 793 794 794 794 794 794 794 793 791 790 789 788
808 806 803 800 796 793 790 786 783 780 778 774 772 770 767 765 762 761 760 761 762 765 767 770 771 774 777 781 784 787 788 790 790 791 791 791 792 791 790 789 788 787 785
Wind_Speed
9 20 18 14 15 14 13 11 10 9 9 9 9 8 7 6 6 7 7 8 7 8 7 6 6 6 7 6 3 3 3 2 7 6 3 7 7 9 13 12 11 11 8
9 13 19 16 14 14 13 12 10 11 8 7 8 8 10 5 5 7 8 7 7 8 6 7 7 7 6 5 5 6 4 5 8 5 2 3 2 2 2 5 6 7 6
7 9 16 15 13 13 13 13 11 10 8 6 8 8 8 9 8 7 6 7 7 7 7 7 6 6 7 6 7 8 7 5 6 8 4 2 1 4 2 2 2 3 6
11 6 13 17 14 13 13 12 11 9 8 7 6 5 4 9 8 4 5 6 6 7 7 7 6 6 5 5 7 5 7 6 9 4 6 4 3 2 3 3 6 2 5
8 10 5 20 19 12 15 13 13 11 9 9 7 6 8 8 7 6 6 6 6 6 7 7 6 6 5 6 6 5 6 6 6 7 5 4 2 1 1 2 6 6 2
8 9 7 12 18 16 16 14 14 12 11 11 9 9 8 8 8 7 6 5 5 6 7 7 6 5 3 4 4 4 3 3 5 4 5 5 3 4 4 2 3 7 6
7 8 2 12 15 17 15 16 14 13 13 12 12 11 10 9 8 6 6 5 5 4 4 4 3 3 3 4 3 3 3 3 2 2 2 2 2 3 4 4 3 3 5
8 8 11 15 15 15 15 14 12 12 11 10 10 10 9 8 7 6 6 5 4 1 2 3 4 3 3 3 2 3 3 3 2 2 2 2 2 3 2 3 4 3 3
9 8 12 8 12 13 14 13 11 10 9 9 8 8 7 7 6 5 5 4 3 3 1 2 2 2 2 2 3 2 2 2 2 2 3 3 4 5 5 5 4 2 2
7 8 11 11 9 10 12 12 11 8 7 6 5 5 6 5 4 3 3 3 2 1 2 1 1 1 2 2 1 1 1 3 3 3 4 4 4 5 6 6 7 8 8
7 7 10 8 7 6 8 8 8 7 6 6 5 6 5 5 4 3 3 3 3 1 1 0 1 1 1 2 2 2 2 4 4 5 6 7 6 9 9 8 8 10 12
5 7 14 16 11 7 3 1 3 5 6 6 7 8 8 8 8 7 6 6 4 3 2 2 1 1 2 3 3 4 4 6 6 7 7 9 7 8 10 11 11 13 15
6 6 10 12 13 14 10 6 4 5 6 7 9 10 11 12 12 11 11 10 7 6 5 3 3 3 4 4 4 5 6 6 8 8 9 10 10 11 11 13 13 15 16
3 3 5 8 10 10 10 9 7 6 6 7 9 12 13 14 15 15 14 13 11 10 8 6 6 5 5 5 5 5 6 7 8 9 11 12 12 12 13 13 13 14 15
3 3 3 5 5 5 8 9 10 8 8 9 11 13 13 14 15 17 17 17 14 12 10 9 8 6 6 4 5 8 8 9 10 11 12 12 13 12 14 15 16 17 19
4 4 6 11 12 9 10 10 11 12 12 13 14 14 15 15 16 17 19 19 18 16 13 12 10 9 6 5 6 7 9 9 12 13 13 13 13 13 14 15 16 17 19
5 7 9 14 16 17 14 12 13 12 14 16 16 16 16 17 17 17 19 22 21 18 17 14 13 11 9 7 7 7 10 11 13 14 14 13 11 12 14 14 15 16 16
4 7 12 15 19 20 18 13 13 14 16 18 19 18 17 18 18 18 21 23 22 22 19 17 15 13 11 8 8 8 11 12 12 12 13 14 14 14 15 16 17 17 19
11 13 13 17 21 22 20 15 14 13 16 19 20 20 19 18 19 20 21 23 24 24 23 20 17 16 13 10 8 9 11 11 11 12 12 13 15 15 14 15 16 19 19
14 15 18 18 18 21 22 20 18 15 17 19 19 18 18 20 19 21 21 23 26 27 23 20 19 16 14 11 9 9 11 12 12 13 13 12 13 13 13 14 16 16 15
16 17 18 17 17 20 21 20 21 20 19 21 20 19 18 20 22 20 20 22 24 26 25 22 20 18 16 13 11 10 11 12 13 13 14 13 13 14 14 14 15 16 18
15 17 17 17 19 20 20 19 20 21 22 22 20 19 18 19 22 22 20 21 23 26 26 23 21 20 16 14 12 11 11 10 12 13 15 17 12 13 13 13 13 13 15
15 16 18 19 19 21 19 20 20 20 20 20 21 21 20 20 19 23 21 20 25 25 25 25 25 21 16 14 12 11 11 10 11 12 10 9 9 8 9 8 10 11 9
15 16 17 17 19 22 21 22 23 20 22 22 22 22 21 21 23 21 24 22 24 24 22 21 21 23 18 17 13 10 11 9 9 11 12 7 5 3 4 5 9 10 9
17 18 17 19 20 22 24 24 23 24 22 21 20 20 21 20 22 20 25 26 28 29 26 25 25 24 22 20 14 12 11 10 8 7 2 1 2 5 7 9 12 13 12
19 19 21 21 23 25 24 24 23 21 21 21 20 19 19 19 20 20 18 23 21 22 25 22 25 23 19 15 14 11 9 8 6 6 3 1 3 6 9 11 14 16 15
Wind_Direction
153 140 144 148 146 150 147 150 146 137 124 119 115 114 105 94 96 104 94 77 86 80 76 79 74 76 74 75 56 65 43 343 341 327 327 290 267 261 259 256 257 251 251
132 133 140 150 160 157 155 152 150 137 133 152 129 131 131 130 100 85 87 88 87 95 70 77 63 79 75 66 56 62 90 41 22 26 329 350 42 264 280 272 255 260 258
358 141 142 158 168 166 165 155 151 146 154 161 146 136 120 107 91 76 60 79 80 85 89 89 78 85 85 74 51 54 52 52 39 41 53 25 79 332 63 98 110 153 59
341 351 144 159 172 174 163 154 149 148 135 115 113 102 128 125 112 110 83 71 74 82 90 87 79 78 72 75 69 53 62 59 39 82 48 45 30 50 354 73 55 1 9
333 320 220 160 166 160 155 157 145 144 140 131 129 122 111 117 118 107 89 69 61 62 70 81 80 79 72 63 52 53 60 56 62 43 18 38 8 14 124 300 339 347 353
327 311 273 155 149 150 158 155 158 152 144 136 128 125 122 123 119 123 112 98 79 55 62 71 72 67 72 64 60 54 45 46 66 51 41 41 19 14 13 359 348 328 308
343 328 136 136 151 153 164 168 171 150 143 136 133 129 128 125 129 126 121 112 105 101 54 75 70 54 46 48 48 47 48 21 39 45 23 8 18 345 353 339 317 326 329
1 349 357 146 161 170 178 177 169 152 148 143 135 132 129 134 135 141 133 139 141 145 69 65 50 29 32 41 37 62 25 359 25 337 296 297 284 323 322 328 354 325 294
13 360 14 130 145 165 181 183 175 165 160 155 152 145 137 134 144 138 134 137 140 91 50 61 66 9 18 14 24 47 359 305 313 293 288 294 284 269 264 254 260 254 307
19 30 19 56 115 154 176 184 186 180 178 183 184 176 169 163 164 158 156 164 193 150 119 93 66 27 14 0 4 54 329 305 286 303 292 283 279 276 268 261 256 250 261
26 23 49 63 93 133 164 177 188 196 199 215 225 231 226 216 209 208 222 229 234 232 179 244 8 6 339 341 330 295 316 306 304 286 287 286 281 274 271 266 266 264 261
41 45 46 53 75 80 85 177 237 250 257 260 256 251 248 243 235 229 235 242 247 256 250 246 280 312 319 315 306 311 297 288 294 293 291 287 283 278 279 277 272 269 269
23 21 43 42 47 48 52 44 3 314 292 280 273 267 264 258 251 240 234 238 235 236 237 243 248 257 269 284 288 289 291 289 288 285 281 277 278 276 276 274 277 276 278
79 50 36 44 30 22 15 9 352 352 327 286 272 269 270 269 262 252 241 242 240 238 232 225 236 249 262 271 283 294 299 298 294 290 286 284 279 279 278 282 283 288 287
60 41 17 6 3 353 345 338 331 325 318 301 284 280 281 271 261 254 243 241 240 242 239 237 241 247 261 281 273 258 273 283 289 290 288 286 286 281 277 279 283 284 288
313 8 3 350 335 323 316 310 316 314 307 300 286 284 281 278 266 251 241 238 236 236 237 237 241 241 247 254 272 289 295 291 286 289 290 287 285 281 280 279 278 277 278
356 352 344 328 320 313 302 304 306 308 303 299 293 283 278 271 263 254 242 237 233 232 233 234 234 238 237 248 267 280 284 285 284 285 288 290 284 284 291 290 284 283 282
336 327 320 321 319 308 298 294 304 303 302 295 293 293 282 271 266 255 245 238 233 231 232 233 233 235 235 240 255 273 280 282 285 286 286 287 289 289 289 290 289 289 290
323 315 332 327 322 323 321 304 294 302 302 298 294 292 289 279 265 257 250 241 234 232 231 233 232 234 238 240 253 269 280 286 288 288 289 293 293 294 288 289 296 300 297
327 334 329 323 323 317 315 312 307 299 301 298 294 296 294 283 272 263 257 249 237 235 233 233 234 236 241 244 254 268 280 291 296 299 297 298 295 298 297 302 300 297 302
339 325 325 318 318 317 317 312 307 301 299 297 291 291 288 288 278 271 261 252 239 233 230 231 232 235 237 245 253 265 272 282 294 299 302 302 303 299 298 299 303 302 304
332 326 325 320 318 317 318 314 306 304 301 298 296 294 290 286 278 263 265 249 239 230 227 226 227 232 237 241 249 255 263 277 285 301 302 306 308 305 303 304 301 302 307
323 325 320 317 316 314 314 308 309 309 307 304 302 298 290 285 279 255 254 240 232 227 218 217 224 230 233 238 237 246 256 267 280 288 309 307 316 316 317 326 328 335 326
314 315 316 311 312 309 307 305 308 308 307 303 298 294 288 278 276 248 241 234 220 217 215 210 215 226 227 221 231 229 242 243 261 277 281 298 318 336 341 355 7 8 358
306 310 301 303 299 304 304 304 303 303 301 294 288 283 279 273 272 264 228 232 238 225 213 211 209 207 207 212 218 216 224 237 254 261 263 309 10 18 16 14 13 11 1
307 306 309 308 304 309 310 313 313 305 296 292 287 280 274 269 266 255 237 231 237 231 228 224 218 210 213 202 202 207 213 213 217 200 188 93 33 20 12 8 4 4 360